DW6233 Weather Reports


Display with metric or nautical units.
time (UTC)temp
F
wind
direction
speed
MPH
gust
MPH
rain 1hr
in
rain 24hr
in
rain mn
in
humidity
%
barometer
mb
20260904093011 56 318 16.0 26.0 0.00 0.00 0.00 66 1009.4
20260904091510 56 332 14.0 26.0 0.00 0.00 0.00 66 1009.1
20260904090009 56 322 14.0 21.0 0.00 0.00 0.00 67 1008.9
20260904084509 56 322 14.0 24.0 0.00 0.00 0.00 69 1008.5
20260904083016 57 308 17.0 26.0 0.00 0.00 0.00 69 1008.2
20260904081507 56 349 18.0 32.0 0.00 0.00 0.00 72 1007.6
20260904080006 56 9 23.0 33.0 0.00 0.00 0.00 72 1007.6
20260904074501 56 351 22.0 37.0 0.00 0.00 0.00 72 1006.8
20260904073051 57 348 17.0 40.0 0.00 0.00 0.00 71 1007.1
20260904070009 57 329 18.0 33.0 0.00 0.00 0.00 73 1006.6
20260904064559 57 336 19.0 32.0 0.00 0.00 0.00 71 1006.1
20260904063019 58 351 22.0 33.0 0.00 0.00 0.00 68 1006.1
20260904061556 57 352 20.0 31.0 0.00 0.00 0.00 69 1005.7
20260904060105 57 340 19.0 30.0 0.00 0.00 0.00 70 1005.6
20260904054623 58 349 23.0 34.0 0.00 0.00 0.00 71 1005.4
20260904051538 58 19 23.0 35.0 0.00 0.00 0.00 71 1004.8
20260904050051 59 342 19.0 31.0 0.00 0.00 0.00 71 1004.4
20260904044533 59 6 21.0 38.0 0.00 0.00 0.00 72 1004.5
20260904043041 59 351 21.0 41.0 0.00 0.00 0.00 71 1004.0
20260904041518 59 7 22.0 36.0 0.00 0.00 0.00 71 1003.7
20260904040008 59 337 22.0 32.0 0.00 0.00 0.00 72 1003.8
20260904034525 59 339 21.0 30.0 0.00 0.00 0.00 72 1003.6
20260904033048 59 332 22.0 35.0 0.00 0.00 0.00 71 1003.7
20260904031531 59 340 22.0 35.0 0.00 0.00 0.00 71 1003.9
20260904030043 59 333 19.0 38.0 0.00 0.00 0.00 73 1003.4
20260904024554 59 325 24.0 37.0 0.00 0.00 0.00 73 1003.0
20260904023022 59 340 21.0 33.0 0.00 0.00 0.00 74 1003.2
20260904021604 59 318 20.0 34.0 0.00 0.00 0.00 73 1003.5
20260904020104 59 343 21.0 33.0 0.00 0.00 0.00 72 1003.4
20260904014619 59 311 24.0 41.0 0.00 0.00 0.00 72 1003.0
20260904013118 59 324 25.0 37.0 0.00 0.00 0.00 73 1003.1
20260904011553 59 308 20.0 35.0 0.00 0.00 0.00 74 1003.7
20260904010041 59 21 24.0 42.0 0.00 0.00 0.00 73 1003.6
20260904003038 59 43 26.0 45.0 0.00 0.00 0.00 77 1003.1
20260904001511 60 10 30.0 51.0 0.00 0.00 0.00 81 1003.0
20260904000010 60 334 34.0 49.0 0.00 0.00 0.00 82 1002.7
20260903234510 60 357 35.0 47.0 0.00 0.00 0.00 81 1003.2
20260903233024 60 13 28.0 46.0 0.00 0.00 0.00 83 1003.7
20260903231510 60 18 33.0 50.0 0.00 0.00 0.00 83 1003.3
20260903230008 60 351 29.0 51.0 0.00 0.00 0.00 84 1003.5
20260903224506 59 337 32.0 54.0 0.00 0.00 0.00 85 1002.7
20260903223003 59 26 26.0 40.0 0.00 0.00 0.00 87 1002.1
20260903221500 58 5 28.0 50.0 0.00 0.00 0.00 89 1002.7
20260903214559 58 36 33.0 50.0 0.00 0.00 0.00 90 1003.4
20260903213103 58 34 24.0 55.0 0.00 0.00 0.00 91 1003.4
20260903211606 58 10 29.0 47.0 0.00 0.00 0.00 90 1003.7
20260903210004 58 356 35.0 56.0 0.00 0.00 0.00 89 1004.0
20260903203054 58 15 28.0 49.0 0.00 0.00 0.00 90 1004.1
20260903201549 58 31 25.0 46.0 0.00 0.00 0.00 90 1004.5
20260903200048 58 33 33.0 51.0 0.00 0.00 0.00 89 1005.2
20260903193046 59 32 32.0 47.0 0.00 0.00 0.00 88 1005.0
20260903191544 59 24 28.0 44.0 0.00 0.00 0.00 89 1005.5
20260903190042 59 21 31.0 44.0 0.00 0.00 0.00 88 1006.2
20260903181551 58 354 34.0 46.0 0.00 0.00 0.00 88 1005.9
20260903180050 58 359 33.0 48.0 0.00 0.00 0.00 88 1005.8
20260903174548 58 360 23.0 42.0 0.00 0.00 0.00 89 1006.0
20260903171555 58 350 31.0 49.0 0.00 0.00 0.00 90 1006.5
20260903170046 58 356 37.0 56.0 0.00 0.00 0.00 89 1006.1
20260903164547 58 351 38.0 54.0 0.00 0.00 0.00 90 1006.2
20260903161541 58 336 28.0 41.0 0.00 0.00 0.00 90 1007.2
20260903160040 58 358 29.0 46.0 0.00 0.00 0.00 90 1007.5
20260903154538 58 351 22.0 41.0 0.00 0.00 0.00 90 1007.6
20260903151512 58 338 28.0 37.0 0.00 0.00 0.00 91 1008.2
20260903150048 58 30 23.0 45.0 0.00 0.00 0.00 92 1008.3
20260903144548 58 349 27.0 43.0 0.00 0.00 0.00 91 1008.5
20260903143048 58 344 26.0 37.0 0.00 0.00 0.00 91 1008.8
20260903141544 58 341 20.0 28.0 0.00 0.00 0.00 91 1009.4
20260903140046 58 338 21.0 39.0 0.00 0.00 0.00 91 1009.7
20260903134548 57 13 18.0 26.0 0.00 0.00 0.00 90 1009.8
20260903133043 57 27 21.0 32.0 0.00 0.00 0.00 90 1009.9
20260903131540 58 22 18.0 31.0 0.00 0.00 0.00 90 1010.1
20260903130050 58 15 16.0 27.0 0.00 0.00 0.00 91 1010.3
20260903124552 58 360 21.0 30.0 0.00 0.00 0.00 91 1010.5
20260903123044 57 2 23.0 32.0 0.00 0.00 0.00 92 1010.5
20260903121539 58 22 22.0 35.0 0.00 0.00 0.00 92 1010.7
20260903120033 58 3 14.0 30.0 0.00 0.00 0.00 91 1010.4
20260903114534 57 26 18.0 26.0 0.00 0.00 0.00 91 1011.0
20260903113030 57 20 20.0 34.0 0.00 0.00 0.00 92 1011.2
20260903111533 57 12 21.0 35.0 0.00 0.00 0.00 92 1011.1
20260903110025 57 2 17.0 28.0 0.00 0.00 0.00 92 1011.3
20260903104522 57 7 20.0 34.0 0.00 0.00 0.00 92 1011.6
20260903103022 57 357 16.0 30.0 0.00 0.00 0.00 91 1011.7
20260903101520 57 12 12.0 26.0 0.00 0.00 0.00 90 1011.6
20260903100017 57 53 18.0 32.0 0.00 0.00 0.00 91 1011.9
20260903094522 58 354 23.0 34.0 0.00 0.00 0.00 90 1012.0